Temperature
18 18 18 18 18 18 18 18 18 18 18 18 18 18 18 18 18 18 17 17 17 17 17 17 17 17 17 17 16 16 16 16 16 16 15 15 15 15
18 18 18 18 18 18 18 18 18 18 18 18 18 18 18 17 17 17 17 17 17 17 17 17 17 17 17 16 16 16 16 16 16 15 15 15 15 15
18 18 18 18 18 18 18 18 18 18 18 18 18 18 18 17 17 17 17 17 17 17 17 17 17 16 16 16 16 16 16 16 16 15 15 15 15 15
18 18 18 18 18 18 18 18 18 18 17 17 17 18 17 17 17 17 17 17 17 17 16 16 16 16 16 16 16 16 16 16 16 15 15 15 15 15
17 17 17 17 17 17 17 17 17 17 17 17 17 17 17 17 17 17 16 16 16 16 16 16 16 16 16 16 16 16 16 15 15 15 15 15 15 14
17 17 17 17 17 17 17 17 17 17 17 17 17 17 17 17 17 16 16 16 16 16 16 16 16 16 16 16 16 16 15 15 15 15 15 15 15 14
17 17 17 17 17 17 17 17 17 17 17 16 16 17 17 17 16 16 16 16 16 16 16 16 16 16 16 16 16 16 15 15 15 15 15 15 14 14
17 17 17 17 17 17 17 17 17 16 16 16 16 16 16 16 16 16 15 15 15 16 15 16 16 16 16 16 16 16 15 15 15 15 14 14 14 14
17 17 16 16 16 16 16 16 16 16 16 16 16 16 16 16 16 16 15 15 15 16 15 15 15 15 15 15 16 15 15 15 15 15 14 14 14 14
16 16 16 16 16 16 16 16 16 16 16 16 15 15 15 15 15 15 15 15 15 15 15 15 15 15 15 15 15 15 15 15 15 14 14 14 14 14
16 16 16 16 16 16 15 15 15 15 15 15 15 15 15 15 15 15 15 15 14 15 15 15 15 15 15 15 15 14 14 14 14 14 14 14 13 13
16 15 15 16 15 15 15 15 15 15 15 15 15 15 15 15 15 15 14 14 14 14 14 14 14 14 14 14 14 14 14 14 14 14 13 13 13 13
15 15 15 15 15 15 15 15 15 14 14 14 14 14 14 14 14 14 14 14 14 14 14 14 14 14 14 14 14 14 14 13 13 13 13 13 13 13
15 15 15 15 15 15 14 14 14 14 14 14 13 14 14 14 14 14 14 14 14 14 14 14 14 14 13 13 13 13 13 13 13 13 13 12 12 12
15 14 14 14 14 14 14 14 14 13 13 13 13 13 13 13 14 14 14 14 14 14 14 14 14 13 13 13 13 13 13 13 12 12 12 12 12 12
14 14 14 14 14 14 13 13 13 13 13 13 13 13 13 13 13 13 13 13 13 13 13 13 13 13 13 13 13 13 13 13 12 12 12 12 11 11
14 14 13 13 13 13 13 13 13 13 13 13 12 12 12 13 13 13 13 13 13 13 13 13 13 13 13 13 12 12 12 12 12 12 11 11 11 11
13 13 13 13 13 13 12 12 12 12 12 12 12 12 12 12 12 12 12 12 12 12 12 12 12 12 12 12 12 12 12 12 12 11 11 11 11 11
13 12 12 12 12 12 12 12 12 12 12 12 11 11 11 11 11 11 11 11 11 11 12 12 12 11 11 11 11 12 11 11 11 11 11 11 10 10
12 12 12 12 12 12 11 11 11 11 11 11 11 11 11 11 11 11 11 11 11 11 11 11 11 11 11 11 11 11 11 11 11 10 10 10 10 10
12 12 11 11 11 11 11 11 11 11 11 10 10 10 10 10 10 10 10 10 10 10 10 11 11 11 11 11 10 10 10 10 10 10 10 10 9 9
11 11 11 11 11 10 10 10 10 10 10 10 10 10 10 10 10 10 10 10 10 10 10 10 10 10 10 10 10 10 10 10 10 10 10 10 9 9
11 10 10 10 10 10 10 10 10 10 10 10 10 9 9 9 9 9 9 9 9 9 9 9 9 9 10 10 10 10 10 10 10 9 10 9 9 9
Wind_Speed
6 6 5 4 4 4 3 3 3 3 3 3 1 2 2 3 7 6 5 8 10 10 10 10 10 9 9 8 8 7 7 6 6 6 7 7 7 6
5 5 5 5 4 4 4 4 4 4 3 2 1 1 2 2 6 5 4 7 10 10 11 11 10 10 9 9 9 8 7 7 7 7 7 7 7 6
6 5 5 5 4 4 4 4 4 3 4 4 2 1 2 2 3 4 5 6 7 10 12 12 12 11 10 10 10 9 9 8 7 7 7 7 7 7
4 5 5 5 5 5 4 5 4 4 4 4 3 3 3 4 4 4 4 6 6 10 13 13 13 12 12 12 11 10 10 9 8 7 7 7 7 7
4 4 5 5 5 4 5 5 4 4 3 4 4 3 3 3 4 4 5 3 5 7 11 12 13 13 13 13 13 12 11 10 9 9 8 8 8 8
4 4 4 5 5 5 6 5 4 4 4 4 4 4 3 3 3 3 3 3 4 5 6 8 10 13 14 14 14 13 12 11 11 11 10 10 9 9
5 5 5 5 5 4 5 4 4 4 4 4 4 4 4 2 3 3 4 3 4 3 3 5 6 7 10 13 13 14 14 13 13 12 11 11 10 10
5 5 5 6 6 6 6 6 5 5 5 5 5 4 4 3 3 4 4 4 4 2 3 4 5 5 6 8 12 15 15 14 14 13 13 12 12 12
5 5 7 6 5 4 5 6 7 8 8 6 6 6 5 3 3 4 5 5 6 4 3 5 5 5 5 9 14 16 16 16 16 15 14 13 13 13
6 6 5 3 4 3 5 5 6 6 7 7 5 6 5 4 5 6 7 6 5 4 4 5 4 4 4 5 12 15 17 17 16 15 15 14 14 14
6 5 4 4 4 4 5 6 6 5 5 6 7 7 8 9 7 4 5 5 5 4 3 3 3 3 3 3 6 12 14 15 16 16 15 14 13 12
4 4 4 3 3 4 4 5 6 5 5 5 6 8 8 8 9 7 6 6 5 4 3 3 3 2 2 2 3 5 8 11 13 14 14 14 13 9
4 4 3 3 3 4 5 5 7 6 6 6 6 6 5 5 6 7 7 6 6 5 3 3 3 3 3 2 2 3 5 5 7 9 12 14 14 11
4 3 2 3 4 6 6 8 9 7 6 6 5 5 5 4 4 5 7 7 7 7 6 4 4 4 4 3 3 2 3 4 5 5 6 9 12 14
4 3 3 5 5 5 7 8 7 6 5 5 5 4 4 4 4 4 5 7 8 9 8 6 5 5 5 4 3 3 2 3 4 4 4 5 5 6
3 3 4 6 7 6 5 4 5 5 4 5 5 4 4 3 4 4 5 5 5 6 7 7 7 6 5 4 3 4 3 3 3 4 4 4 5 6
2 3 4 3 3 4 3 3 3 3 4 4 4 4 4 3 3 3 4 4 5 6 5 4 4 5 5 4 4 4 4 3 3 3 3 4 4 5
3 4 4 4 4 4 3 3 3 3 3 3 3 4 4 4 4 3 3 4 5 5 4 3 2 2 2 3 4 4 4 3 3 3 3 3 5 4
4 5 4 4 4 4 3 3 3 3 2 3 3 4 4 4 4 4 3 4 4 4 4 3 3 3 4 4 2 2 3 3 3 3 3 3 4 4
4 4 4 4 3 3 3 3 3 3 3 3 4 4 4 4 4 4 4 4 4 4 4 3 2 3 4 4 3 3 4 4 4 4 3 2 2 2
3 4 4 4 3 2 2 2 3 3 3 3 3 3 3 4 4 4 4 5 5 4 4 3 2 3 2 2 2 2 2 2 4 3 3 3 2 2
2 3 3 3 2 2 3 3 3 3 3 3 3 3 4 4 4 4 4 3 3 3 3 3 2 2 2 3 4 3 2 1 0 1 2 3 3 3
2 3 3 3 3 2 2 2 3 3 2 3 3 3 3 3 3 3 4 3 3 3 2 2 2 2 3 3 3 3 2 2 1 1 1 1 3 6
Wind_Direction
235 236 238 247 245 250 246 237 239 262 267 241 215 183 155 162 171 184 191 204 211 214 216 216 216 218 221 223 225 224 225 229 231 232 233 231 232 234
237 240 240 245 248 248 243 246 247 248 258 264 251 224 200 194 179 190 196 207 208 210 210 211 213 216 219 221 223 223 224 227 226 224 222 219 219 221
247 241 243 245 252 260 257 252 245 241 251 261 258 245 218 208 191 204 212 205 206 211 210 210 212 213 216 218 221 223 223 223 221 219 219 216 213 211
251 254 252 249 245 250 258 260 252 241 241 252 256 251 236 210 200 218 225 221 207 211 209 211 211 212 216 218 220 222 221 219 216 213 213 212 209 210
246 257 255 250 251 249 248 253 261 263 243 246 257 251 242 219 209 230 235 228 232 213 209 212 214 216 219 220 221 220 217 216 215 215 214 212 211 211
245 249 258 255 252 256 256 254 262 271 269 258 254 251 242 229 214 231 248 234 241 227 206 211 218 220 221 220 218 214 214 215 214 214 214 213 214 214
240 238 240 238 245 255 259 260 260 261 264 262 256 256 247 235 234 237 252 254 247 226 203 213 211 216 220 224 218 212 213 214 213 214 215 215 216 216
241 241 235 233 233 235 235 240 247 251 256 260 259 258 250 247 249 256 254 257 258 226 224 239 208 214 211 210 209 208 210 211 213 214 215 216 218 218
243 247 253 243 223 234 235 238 244 245 242 250 262 266 263 256 257 262 262 256 255 241 238 253 235 224 216 214 204 206 207 209 212 214 215 218 219 219
246 243 241 240 246 252 260 257 254 250 244 239 245 258 264 261 252 251 259 259 258 248 224 250 240 236 229 205 206 204 203 206 210 212 214 216 219 220
248 251 238 222 230 240 256 263 264 258 258 257 247 249 254 257 255 263 261 260 264 255 230 240 251 250 234 223 209 204 206 208 210 211 211 212 215 217
241 244 230 215 225 226 247 260 263 267 273 267 257 254 249 246 239 229 242 252 259 264 233 233 243 245 261 236 195 196 209 216 214 214 214 213 209 205
247 242 223 192 208 227 240 248 251 262 267 265 259 249 245 242 237 228 230 238 247 254 252 236 253 240 246 268 240 203 196 200 209 215 216 217 210 201
252 239 217 208 233 247 247 247 251 258 258 259 259 257 256 252 244 236 233 233 235 242 251 239 247 245 246 262 262 227 209 198 196 201 203 210 216 218
259 253 245 237 245 258 250 248 243 244 249 256 258 258 260 261 261 253 244 234 237 247 250 238 235 237 233 241 244 234 236 219 202 200 195 199 206 210
260 274 260 250 254 258 263 252 239 241 248 257 265 266 264 256 253 257 258 253 250 251 241 232 233 232 240 241 232 234 226 216 214 207 205 207 205 211
245 255 255 254 245 247 252 259 261 260 262 270 281 289 287 279 270 263 258 260 254 255 250 232 230 232 230 228 236 235 223 227 221 215 211 214 219 221
223 243 245 241 243 247 249 250 255 263 272 276 278 284 289 288 286 286 280 277 275 270 267 242 231 258 282 265 231 225 221 223 218 212 211 225 233 228
227 239 244 244 240 241 244 251 253 258 269 272 274 279 284 286 284 280 279 280 278 277 272 259 228 220 243 264 277 226 217 220 208 209 215 231 242 233
229 236 244 249 246 249 253 256 262 258 260 268 272 277 279 279 277 275 273 277 280 280 276 268 248 233 239 243 253 266 232 210 206 212 217 231 252 228
243 244 247 250 250 253 262 264 262 264 267 276 279 283 284 282 280 280 276 276 273 273 272 271 262 243 232 228 242 252 260 228 208 210 209 208 237 231
267 263 262 262 258 252 256 262 261 263 264 268 277 287 288 285 284 283 279 277 272 273 275 286 284 265 240 233 240 250 260 255 199 173 199 206 203 213
263 263 254 253 252 247 253 269 276 278 284 281 278 278 285 286 284 283 287 282 274 271 271 283 294 281 258 239 243 250 249 246 212 190 259 290 232 217
Height
1542 1543 1543 1544 1544 1545 1545 1545 1545 1544 1543 1543 1543 1542 1541 1541 1541 1540 1539 1539 1539 1539 1539 1539 1538 1538 1537 1537 1537 1536 1536 1536 1536 1536 1535 1535 1535 1536
1539 1540 1540 1540 1541 1541 1542 1542 1542 1542 1540 1540 1540 1540 1539 1539 1539 1538 1537 1537 1536 1536 1536 1536 1535 1535 1534 1534 1534 1533 1533 1533 1533 1533 1532 1532 1532 1533
1536 1536 1537 1537 1538 1538 1538 1539 1539 1539 1538 1537 1537 1537 1537 1536 1536 1535 1534 1534 1533 1533 1533 1532 1532 1531 1531 1531 1531 1530 1530 1530 1530 1530 1529 1529 1529 1530
1532 1533 1533 1534 1534 1534 1535 1535 1535 1535 1535 1534 1534 1534 1534 1533 1533 1532 1531 1531 1531 1530 1529 1529 1528 1528 1528 1527 1527 1527 1527 1527 1527 1526 1526 1526 1526 1526
1529 1529 1529 1530 1530 1530 1531 1531 1531 1532 1532 1531 1530 1531 1530 1530 1529 1529 1528 1528 1527 1527 1526 1525 1525 1525 1524 1524 1523 1523 1523 1523 1523 1523 1523 1523 1523 1523
1525 1526 1525 1526 1526 1526 1527 1527 1528 1528 1528 1528 1527 1527 1527 1526 1526 1525 1525 1524 1524 1523 1522 1522 1521 1521 1521 1520 1520 1520 1520 1520 1519 1519 1519 1519 1519 1520
1521 1521 1521 1521 1521 1522 1523 1523 1523 1523 1523 1523 1523 1523 1522 1522 1522 1522 1521 1521 1520 1520 1518 1518 1517 1517 1517 1516 1516 1516 1516 1516 1515 1515 1515 1515 1516 1516
1517 1517 1517 1517 1517 1517 1518 1518 1519 1519 1518 1519 1518 1518 1518 1518 1518 1518 1518 1517 1516 1516 1515 1514 1514 1513 1513 1512 1512 1512 1512 1512 1511 1511 1511 1511 1511 1512
1512 1512 1513 1513 1513 1513 1513 1513 1513 1514 1514 1514 1514 1513 1513 1513 1513 1513 1513 1512 1511 1511 1511 1509 1509 1509 1509 1508 1508 1508 1508 1508 1507 1507 1507 1507 1507 1507
1508 1508 1508 1508 1508 1508 1508 1508 1508 1508 1508 1508 1508 1508 1509 1508 1508 1509 1508 1508 1507 1507 1506 1505 1504 1504 1504 1504 1504 1504 1504 1503 1503 1502 1502 1502 1503 1503
1503 1503 1503 1503 1503 1504 1504 1503 1503 1502 1503 1503 1503 1503 1503 1503 1503 1503 1503 1503 1502 1502 1502 1501 1500 1500 1499 1499 1499 1499 1499 1499 1498 1498 1498 1498 1498 1499
1498 1498 1498 1499 1499 1499 1498 1498 1497 1497 1497 1497 1497 1497 1497 1497 1498 1498 1498 1498 1497 1497 1497 1497 1496 1496 1494 1494 1494 1494 1493 1494 1494 1494 1494 1494 1494 1494
1493 1494 1494 1494 1494 1493 1493 1492 1491 1492 1492 1492 1491 1491 1491 1491 1492 1492 1492 1493 1492 1492 1492 1492 1491 1491 1490 1489 1489 1489 1489 1488 1489 1489 1489 1489 1489 1490
1489 1489 1490 1489 1489 1488 1487 1486 1486 1486 1486 1487 1486 1486 1486 1486 1486 1486 1487 1487 1487 1487 1487 1487 1486 1485 1485 1484 1483 1484 1484 1484 1484 1484 1484 1484 1485 1485
1484 1484 1485 1484 1484 1483 1482 1481 1481 1481 1481 1481 1482 1481 1481 1481 1482 1482 1482 1481 1481 1481 1481 1481 1481 1480 1480 1479 1478 1478 1479 1479 1479 1479 1479 1479 1479 1479
1479 1480 1480 1480 1479 1478 1478 1477 1476 1476 1476 1477 1477 1477 1477 1477 1477 1476 1476 1476 1475 1475 1476 1476 1476 1475 1474 1474 1474 1473 1474 1474 1474 1474 1474 1474 1475 1475
1474 1474 1474 1474 1474 1474 1473 1473 1473 1472 1472 1473 1473 1472 1472 1472 1472 1472 1471 1471 1470 1469 1469 1470 1470 1470 1469 1469 1469 1468 1468 1469 1469 1469 1470 1469 1469 1470
1470 1469 1470 1470 1470 1470 1469 1469 1469 1468 1468 1468 1468 1468 1468 1467 1467 1467 1466 1466 1465 1464 1464 1464 1464 1464 1464 1464 1465 1464 1464 1464 1464 1464 1464 1464 1464 1465
1465 1465 1465 1465 1466 1465 1465 1465 1465 1465 1464 1464 1464 1463 1463 1462 1462 1461 1461 1461 1460 1459 1459 1459 1459 1459 1459 1459 1459 1460 1459 1459 1459 1459 1459 1459 1459 1460
1461 1461 1461 1461 1461 1461 1461 1461 1461 1461 1460 1460 1459 1459 1458 1457 1457 1457 1457 1456 1455 1455 1454 1454 1454 1454 1454 1454 1454 1455 1456 1455 1455 1455 1455 1455 1456 1457
1456 1457 1457 1457 1457 1457 1457 1457 1457 1456 1456 1455 1455 1454 1453 1453 1452 1452 1452 1452 1451 1451 1450 1450 1450 1450 1450 1451 1450 1450 1451 1452 1452 1451 1452 1452 1452 1452
1452 1452 1452 1452 1452 1452 1452 1452 1452 1452 1451 1450 1450 1449 1449 1448 1448 1448 1448 1447 1447 1446 1446 1447 1447 1447 1446 1446 1446 1447 1448 1448 1449 1449 1449 1449 1448 1447
1447 1447 1447 1446 1447 1447 1447 1447 1447 1446 1446 1446 1446 1445 1445 1444 1444 1444 1444 1444 1443 1443 1442 1443 1443 1443 1443 1443 1443 1444 1444 1444 1444 1445 1445 1446 1446 1446